| time (UTC) | temp F | wind direction | speed knots | gust knots | rain 1hr in | rain 24hr in | rain mn in | humidity % | barometer mb |
| 20260504081830 | 52 | 350 | 0.9 | 2.6 | 0.00 | 0.00 | 0.00 | 6 | 983.3 |
| 20260504081330 | 52 | 295 | 0.9 | 1.7 | 0.00 | 0.00 | 0.00 | 6 | 983.4 |
| 20260504080830 | 52 | 301 | 1.7 | 3.5 | 0.00 | 0.00 | 0.00 | 6 | 983.4 |
| 20260504080330 | 52 | 271 | 1.7 | 3.5 | 0.00 | 0.00 | 0.00 | 6 | 983.4 |
| 20260504070329 | 51 | 283 | 0.9 | 2.6 | 0.00 | 0.00 | 0.00 | 6 | 983.4 |
| 20260504050329 | 52 | 143 | 0.9 | 1.7 | 0.00 | 0.00 | 0.00 | 6 | 984.6 |
| 20260504045830 | 53 | 125 | 0.9 | 1.7 | 0.00 | 0.00 | 0.00 | 6 | 984.6 |
| 20260504045330 | 53 | 113 | 0.0 | 1.7 | 0.00 | 0.00 | 0.00 | 6 | 984.7 |
| 20260504044830 | 53 | 317 | 0.0 | 1.7 | 0.00 | 0.00 | 0.00 | 6 | 984.7 |
| 20260504044330 | 53 | 303 | 0.9 | 2.6 | 0.00 | 0.00 | 0.00 | 6 | 984.7 |
| 20260504043830 | 53 | 305 | 0.9 | 1.7 | 0.00 | 0.00 | 0.00 | 6 | 984.7 |
| 20260504043330 | 53 | 294 | 0.0 | 1.7 | 0.00 | 0.00 | 0.00 | 6 | 984.7 |
| 20260504042830 | 54 | 67 | 0.0 | 0.9 | 0.00 | 0.00 | 0.00 | 6 | 984.7 |
| 20260504042330 | 54 | 173 | 0.9 | 1.7 | 0.00 | 0.00 | 0.00 | 6 | 984.7 |
| 20260504041830 | 54 | 150 | 0.0 | 1.7 | 0.00 | 0.00 | 0.00 | 6 | 984.8 |
| 20260504041330 | 54 | 189 | 0.9 | 1.7 | 0.00 | 0.00 | 0.00 | 6 | 984.9 |
| 20260504040830 | 54 | 338 | 0.9 | 1.7 | 0.00 | 0.00 | 0.00 | 6 | 984.9 |
| 20260504040330 | 55 | 136 | 0.9 | 1.7 | 0.00 | 0.00 | 0.00 | 6 | 984.9 |
| 20260504035830 | 55 | 138 | 1.7 | 1.7 | 0.00 | 0.00 | 0.00 | 6 | 984.9 |
| 20260504035330 | 55 | 133 | 0.9 | 1.7 | 0.00 | 0.00 | 0.00 | 6 | 984.9 |
| 20260504034830 | 55 | 133 | 1.7 | 2.6 | 0.00 | 0.00 | 0.00 | 6 | 984.9 |
| 20260504034330 | 55 | 220 | 0.9 | 1.7 | 0.00 | 0.00 | 0.00 | 6 | 985.0 |
| 20260504033830 | 55 | 153 | 0.9 | 1.7 | 0.00 | 0.00 | 0.00 | 6 | 985.1 |
| 20260504033330 | 56 | 330 | 0.9 | 1.7 | 0.00 | 0.00 | 0.00 | 6 | 985.1 |
| 20260504032829 | 56 | 333 | 0.9 | 2.6 | 0.00 | 0.00 | 0.00 | 6 | 985.1 |
| 20260504032329 | 56 | 265 | 1.7 | 2.6 | 0.00 | 0.00 | 0.00 | 6 | 985.1 |
| 20260504031829 | 56 | 296 | 0.9 | 3.5 | 0.00 | 0.00 | 0.00 | 6 | 985.1 |
| 20260504031329 | 56 | 307 | 1.7 | 3.5 | 0.00 | 0.00 | 0.00 | 6 | 985.1 |
| 20260504030829 | 56 | 318 | 1.7 | 3.5 | 0.00 | 0.00 | 0.00 | 6 | 985.1 |
| 20260504030329 | 56 | 304 | 2.6 | 4.3 | 0.00 | 0.00 | 0.00 | 6 | 985.2 |
| 20260504025829 | 56 | 329 | 1.7 | 3.5 | 0.00 | 0.00 | 0.00 | 6 | 985.2 |
| 20260504025329 | 56 | 315 | 0.9 | 1.7 | 0.00 | 0.00 | 0.00 | 6 | 985.2 |
| 20260504024829 | 57 | 315 | 0.9 | 0.9 | 0.00 | 0.00 | 0.00 | 6 | 985.2 |
| 20260504024329 | 57 | 73 | 0.9 | 1.7 | 0.00 | 0.00 | 0.00 | 5 | 985.2 |
| 20260504023829 | 57 | 305 | 0.9 | 1.7 | 0.00 | 0.00 | 0.00 | 5 | 985.1 |
| 20260504023329 | 58 | 294 | 1.7 | 3.5 | 0.00 | 0.00 | 0.00 | 5 | 985.1 |
| 20260504022829 | 58 | 281 | 2.6 | 3.5 | 0.00 | 0.00 | 0.00 | 5 | 985.1 |
| 20260504022329 | 58 | 277 | 2.6 | 4.3 | 0.00 | 0.00 | 0.00 | 5 | 985.1 |
| 20260504021829 | 58 | 274 | 2.6 | 5.2 | 0.00 | 0.00 | 0.00 | 5 | 985.1 |
| 20260504021329 | 59 | 278 | 2.6 | 4.3 | 0.00 | 0.00 | 0.00 | 5 | 985.2 |
| 20260504020829 | 59 | 264 | 3.5 | 5.2 | 0.00 | 0.00 | 0.00 | 5 | 985.1 |
| 20260504020329 | 59 | 277 | 3.5 | 5.2 | 0.00 | 0.00 | 0.00 | 5 | 984.9 |
| 20260504015829 | 59 | 288 | 3.5 | 5.2 | 0.00 | 0.00 | 0.00 | 5 | 984.9 |
| 20260504015329 | 59 | 271 | 3.5 | 6.1 | 0.00 | 0.00 | 0.00 | 5 | 984.8 |
| 20260504014829 | 59 | 306 | 2.6 | 6.1 | 0.00 | 0.00 | 0.00 | 5 | 984.7 |
| 20260504014329 | 60 | 289 | 3.5 | 6.1 | 0.00 | 0.00 | 0.00 | 5 | 984.7 |
| 20260504013829 | 60 | 299 | 2.6 | 4.3 | 0.00 | 0.00 | 0.00 | 5 | 984.7 |
| 20260504013329 | 60 | 140 | 1.7 | 2.6 | 0.00 | 0.00 | 0.00 | 5 | 984.7 |
| 20260504012829 | 60 | 305 | 2.6 | 3.5 | 0.00 | 0.00 | 0.00 | 5 | 984.4 |
| 20260504012329 | 61 | 306 | 2.6 | 4.3 | 0.00 | 0.00 | 0.00 | 5 | 984.4 |
| 20260504011829 | 61 | 310 | 2.6 | 5.2 | 0.00 | 0.00 | 0.00 | 5 | 984.2 |
| 20260504011329 | 61 | 292 | 2.6 | 5.2 | 0.00 | 0.00 | 0.00 | 5 | 984.2 |
| 20260504010829 | 61 | 332 | 1.7 | 3.5 | 0.00 | 0.00 | 0.00 | 5 | 984.3 |
| 20260504010329 | 62 | 209 | 2.6 | 4.3 | 0.00 | 0.00 | 0.00 | 5 | 984.4 |
| 20260504005830 | 62 | 107 | 2.6 | 4.3 | 0.00 | 0.00 | 0.00 | 5 | 984.4 |
| 20260504005330 | 62 | 359 | 2.6 | 5.2 | 0.00 | 0.00 | 0.00 | 5 | 984.4 |
| 20260504004830 | 62 | 64 | 2.6 | 6.1 | 0.00 | 0.00 | 0.00 | 5 | 984.4 |
| 20260504004330 | 63 | 282 | 2.6 | 5.2 | 0.00 | 0.00 | 0.00 | 5 | 984.2 |
| 20260504003830 | 63 | 322 | 3.5 | 7.0 | 0.00 | 0.00 | 0.00 | 5 | 984.2 |
| 20260504003330 | 63 | 354 | 2.6 | 5.2 | 0.00 | 0.00 | 0.00 | 5 | 984.3 |
| 20260504002830 | 63 | 327 | 1.7 | 4.3 | 0.00 | 0.00 | 0.00 | 5 | 984.4 |
| 20260504002330 | 64 | 292 | 2.6 | 5.2 | 0.00 | 0.00 | 0.00 | 4 | 984.4 |
| 20260504001830 | 64 | 285 | 2.6 | 4.3 | 0.00 | 0.00 | 0.00 | 4 | 984.4 |
| 20260504001330 | 64 | 287 | 4.3 | 7.0 | 0.00 | 0.00 | 0.00 | 4 | 984.4 |
| 20260504000830 | 64 | 288 | 4.3 | 7.0 | 0.00 | 0.00 | 0.00 | 4 | 984.4 |
| 20260504000330 | 65 | 278 | 7.0 | 9.6 | 0.00 | 0.00 | 0.00 | 4 | 984.4 |
| 20260503235830 | 65 | 284 | 6.1 | 13.0 | 0.00 | 0.00 | 0.00 | 4 | 984.4 |
| 20260503235330 | 65 | 261 | 6.1 | 9.6 | 0.00 | 0.00 | 0.00 | 4 | 984.4 |
| 20260503234830 | 65 | 259 | 7.8 | 13.0 | 0.00 | 0.00 | 0.00 | 4 | 984.4 |
| 20260503234330 | 65 | 281 | 7.8 | 13.0 | 0.00 | 0.00 | 0.00 | 4 | 984.4 |
| 20260503233830 | 65 | 310 | 6.1 | 9.6 | 0.00 | 0.00 | 0.00 | 4 | 984.4 |
| 20260503233330 | 65 | 258 | 7.0 | 11.3 | 0.00 | 0.00 | 0.00 | 4 | 984.4 |
| 20260503232830 | 65 | 283 | 6.1 | 9.6 | 0.00 | 0.00 | 0.00 | 4 | 984.4 |
| 20260503232329 | 65 | 305 | 7.0 | 13.0 | 0.00 | 0.00 | 0.00 | 4 | 984.4 |
| 20260503231830 | 65 | 277 | 6.1 | 11.3 | 0.00 | 0.00 | 0.00 | 4 | 984.7 |
| 20260503231329 | 66 | 280 | 7.0 | 14.8 | 0.00 | 0.00 | 0.00 | 4 | 984.7 |
| 20260503230829 | 66 | 272 | 7.8 | 13.0 | 0.00 | 0.00 | 0.00 | 4 | 984.7 |
| 20260503230329 | 65 | 269 | 8.7 | 13.0 | 0.00 | 0.00 | 0.00 | 4 | 984.9 |
| 20260503225829 | 65 | 238 | 6.1 | 10.4 | 0.00 | 0.00 | 0.00 | 4 | 984.9 |
| 20260503225329 | 65 | 268 | 7.8 | 11.3 | 0.00 | 0.00 | 0.00 | 4 | 984.9 |
| 20260503224829 | 65 | 284 | 8.7 | 13.0 | 0.00 | 0.00 | 0.00 | 4 | 984.9 |
| 20260503224329 | 65 | 277 | 7.0 | 12.2 | 0.00 | 0.00 | 0.00 | 4 | 984.9 |
| 20260503223829 | 65 | 282 | 7.8 | 12.2 | 0.00 | 0.00 | 0.00 | 4 | 984.9 |
| 20260503223329 | 65 | 274 | 8.7 | 13.0 | 0.00 | 0.00 | 0.00 | 4 | 984.9 |
| 20260503222829 | 65 | 283 | 8.7 | 14.8 | 0.00 | 0.00 | 0.00 | 4 | 984.7 |
| 20260503222329 | 66 | 300 | 9.6 | 16.5 | 0.00 | 0.00 | 0.00 | 4 | 984.7 |
| 20260503221829 | 66 | 273 | 8.7 | 12.2 | 0.00 | 0.00 | 0.00 | 4 | 984.7 |
| 20260503221329 | 65 | 301 | 9.6 | 13.9 | 0.00 | 0.00 | 0.00 | 4 | 984.7 |
| 20260503220829 | 64 | 290 | 7.8 | 13.0 | 0.00 | 0.00 | 0.00 | 4 | 984.7 |
| 20260503220329 | 64 | 242 | 8.7 | 15.6 | 0.00 | 0.00 | 0.00 | 4 | 984.7 |
| 20260503215829 | 64 | 290 | 7.0 | 13.0 | 0.00 | 0.00 | 0.00 | 4 | 984.7 |
| 20260503215329 | 63 | 296 | 9.6 | 13.0 | 0.00 | 0.00 | 0.00 | 4 | 985.1 |
| 20260503214829 | 63 | 282 | 8.7 | 11.3 | 0.00 | 0.00 | 0.00 | 4 | 985.1 |
| 20260503214329 | 63 | 275 | 9.6 | 16.5 | 0.00 | 0.00 | 0.00 | 4 | 985.0 |
| 20260503213829 | 63 | 293 | 9.6 | 15.6 | 0.00 | 0.00 | 0.00 | 4 | 984.9 |
| 20260503213329 | 63 | 320 | 7.8 | 14.8 | 0.00 | 0.00 | 0.00 | 4 | 984.9 |
| 20260503212829 | 63 | 275 | 8.7 | 13.0 | 0.00 | 0.00 | 0.00 | 4 | 985.1 |
| 20260503212329 | 63 | 282 | 8.7 | 14.8 | 0.00 | 0.00 | 0.00 | 4 | 985.1 |
| 20260503211829 | 64 | 257 | 7.0 | 13.0 | 0.00 | 0.00 | 0.00 | 4 | 985.6 |
| 20260503211329 | 64 | 56 | 4.3 | 9.6 | 0.00 | 0.00 | 0.00 | 4 | 985.6 |
| 20260503210829 | 64 | 242 | 5.2 | 11.3 | 0.00 | 0.00 | 0.00 | 4 | 985.7 |
| 20260503210329 | 63 | 303 | 7.0 | 13.9 | 0.00 | 0.00 | 0.00 | 4 | 985.9 |
| 20260503205830 | 63 | 280 | 6.1 | 10.4 | 0.00 | 0.00 | 0.00 | 4 | 985.9 |
| 20260503205330 | 63 | 285 | 8.7 | 13.9 | 0.00 | 0.00 | 0.00 | 4 | 986.2 |
| 20260503204830 | 63 | 322 | 9.6 | 12.2 | 0.00 | 0.00 | 0.00 | 4 | 986.2 |
| 20260503204330 | 63 | 321 | 7.8 | 14.8 | 0.00 | 0.00 | 0.00 | 4 | 986.2 |
| 20260503203830 | 63 | 256 | 11.3 | 18.2 | 0.00 | 0.00 | 0.00 | 4 | 986.2 |
| 20260503203330 | 64 | 307 | 9.6 | 14.8 | 0.00 | 0.00 | 0.00 | 4 | 986.2 |
| 20260503202830 | 64 | 285 | 7.0 | 12.2 | 0.00 | 0.00 | 0.00 | 4 | 986.2 |
| 20260503202330 | 64 | 215 | 9.6 | 17.4 | 0.00 | 0.00 | 0.00 | 4 | 986.2 |
| 20260503201830 | 65 | 358 | 7.0 | 15.6 | 0.00 | 0.00 | 0.00 | 4 | 986.3 |
| 20260503201330 | 64 | 334 | 5.2 | 10.4 | 0.00 | 0.00 | 0.00 | 4 | 986.4 |
| 20260503200830 | 64 | 253 | 6.1 | 12.2 | 0.00 | 0.00 | 0.00 | 4 | 986.6 |
| 20260503200330 | 63 | 248 | 5.2 | 7.0 | 0.00 | 0.00 | 0.00 | 4 | 987.1 |
| 20260503195830 | 63 | 325 | 6.1 | 8.7 | 0.00 | 0.00 | 0.00 | 4 | 987.1 |
| 20260503195330 | 63 | 285 | 7.0 | 14.8 | 0.00 | 0.00 | 0.00 | 4 | 987.2 |
| 20260503194830 | 64 | 290 | 6.1 | 14.8 | 0.00 | 0.00 | 0.00 | 4 | 987.2 |
| 20260503194330 | 65 | 275 | 7.0 | 14.8 | 0.00 | 0.00 | 0.00 | 4 | 987.4 |
| 20260503193830 | 66 | 127 | 6.1 | 11.3 | 0.00 | 0.00 | 0.00 | 4 | 987.7 |
| 20260503193330 | 65 | 290 | 7.8 | 15.6 | 0.00 | 0.00 | 0.00 | 4 | 987.7 |
| 20260503192830 | 65 | 258 | 6.1 | 10.4 | 0.00 | 0.00 | 0.00 | 4 | 987.9 |
| 20260503192330 | 65 | 260 | 6.1 | 9.6 | 0.00 | 0.00 | 0.00 | 4 | 987.9 |
| 20260503191829 | 64 | 272 | 7.0 | 16.5 | 0.00 | 0.00 | 0.00 | 4 | 988.1 |
| 20260503191329 | 63 | 17 | 3.5 | 5.2 | 0.00 | 0.00 | 0.00 | 4 | 988.4 |
| 20260503190829 | 62 | 304 | 7.0 | 15.6 | 0.00 | 0.00 | 0.00 | 4 | 988.4 |
| 20260503190329 | 62 | 245 | 7.8 | 13.0 | 0.00 | 0.00 | 0.00 | 4 | 988.9 |
| 20260503185829 | 62 | 291 | 7.8 | 13.0 | 0.00 | 0.00 | 0.00 | 4 | 988.9 |
| 20260503185329 | 61 | 280 | 8.7 | 13.9 | 0.00 | 0.00 | 0.00 | 4 | 989.4 |
| 20260503184829 | 60 | 271 | 8.7 | 16.5 | 0.00 | 0.00 | 0.00 | 4 | 989.4 |
| 20260503184329 | 60 | 276 | 8.7 | 16.5 | 0.00 | 0.00 | 0.00 | 4 | 989.6 |
| 20260503183829 | 60 | 256 | 7.8 | 13.9 | 0.00 | 0.00 | 0.00 | 4 | 989.7 |
| 20260503183329 | 60 | 260 | 7.8 | 13.0 | 0.00 | 0.00 | 0.00 | 4 | 989.7 |
| 20260503182829 | 60 | 263 | 8.7 | 13.9 | 0.00 | 0.00 | 0.00 | 4 | 989.9 |
| 20260503182329 | 60 | 265 | 9.6 | 14.8 | 0.00 | 0.00 | 0.00 | 4 | 989.9 |
| 20260503181829 | 60 | 271 | 8.7 | 13.9 | 0.00 | 0.00 | 0.00 | 4 | 989.8 |
| 20260503181329 | 61 | 265 | 8.7 | 12.2 | 0.00 | 0.00 | 0.00 | 4 | 989.7 |
| 20260503180829 | 61 | 269 | 9.6 | 15.6 | 0.00 | 0.00 | 0.00 | 4 | 989.7 |
| 20260503180329 | 61 | 292 | 7.0 | 12.2 | 0.00 | 0.00 | 0.00 | 4 | 989.7 |
| 20260503175829 | 61 | 267 | 7.0 | 9.6 | 0.00 | 0.00 | 0.00 | 4 | 989.7 |
| 20260503175329 | 62 | 289 | 8.7 | 15.6 | 0.00 | 0.00 | 0.00 | 4 | 989.9 |
| 20260503174829 | 62 | 268 | 7.8 | 14.8 | 0.00 | 0.00 | 0.00 | 4 | 989.9 |
| 20260503174329 | 63 | 268 | 8.7 | 16.5 | 0.00 | 0.00 | 0.00 | 4 | 990.0 |
| 20260503173829 | 63 | 282 | 9.6 | 13.9 | 0.00 | 0.00 | 0.00 | 4 | 990.1 |
| 20260503173329 | 63 | 283 | 9.6 | 14.8 | 0.00 | 0.00 | 0.00 | 4 | 990.1 |
| 20260503172829 | 63 | 281 | 8.7 | 10.4 | 0.00 | 0.00 | 0.00 | 4 | 990.4 |
| 20260503172329 | 64 | 270 | 9.6 | 13.9 | 0.00 | 0.00 | 0.00 | 4 | 990.4 |
| 20260503171829 | 64 | 294 | 7.8 | 14.8 | 0.00 | 0.00 | 0.00 | 3 | 990.5 |
| 20260503171329 | 65 | 297 | 6.1 | 11.3 | 0.00 | 0.00 | 0.00 | 4 | 990.6 |
| 20260503170829 | 64 | 340 | 7.8 | 14.8 | 0.00 | 0.00 | 0.00 | 4 | 990.6 |
| 20260503170329 | 63 | 298 | 7.0 | 11.3 | 0.00 | 0.00 | 0.00 | 4 | 990.7 |
| 20260503150829 | 0 | 0 | 0.0 | 0.0 | 0.00 | 0.00 | 0.00 | 100 | |
| 20260503150329 | 0 | 0 | 0.0 | 0.0 | 0.00 | 0.00 | 0.00 | 100 | |
| 20260503131329 | 51 | 301 | 3.5 | 6.1 | 0.00 | 0.00 | 0.00 | 6 | 993.4 |
| 20260503130829 | 50 | 284 | 3.5 | 6.1 | 0.00 | 0.00 | 0.00 | 6 | 993.5 |
| 20260503130329 | 50 | 265 | 5.2 | 7.8 | 0.00 | 0.00 | 0.00 | 6 | 993.6 |
| 20260503110329 | 41 | 318 | 1.7 | 2.6 | 0.00 | 0.00 | 0.00 | 6 | 993.1 |